Volver al catálogo

DELTA 1 DEB

ActivoSSO
NORAD 26827·DEBRIS·🇺🇸 United States

Lanzado Jun 12, 1975 desde Vandenberg Space Force Base

Loading…

Próximos Pases (próximas 24 horas)

TLE

ActualizadoSource: Space-Track

Época: Sep 13, 2026, 17:58 UTC

1 26827U 75052KF  26256.74905363  .00000347  00000-0  79083-3 0  9996
2 26827  99.7768 182.8683 0111434 321.7311  66.2865 13.31264168606944

Sigue DELTA 1 DEB en tiempo real con AllMySat

Download on the App Store